Wind_Speed
21 16 11 6 5 10 23 34 35 35 38 39 35 30 26 23 18 15 19 16 11 15 17 16 20 19 14 18 20 16 16 15 12 15 22 27 28 27 27 27 29 27 23 24 28 26 21 19 20 20 19 18 18 18 20 21 22 25 27 29 31 31 28 27 26 24 23 24 24 23 23 24 25 26 25 25 26 26 26 24 24 25 26 28 28 25 24
23 19 18 13 8 8 12 27 35 32 35 39 36 31 27 24 20 16 18 16 10 14 19 17 18 21 17 16 17 15 12 11 10 12 14 15 17 17 18 20 23 23 24 26 27 24 23 21 21 21 20 19 19 19 20 21 22 25 27 29 31 32 31 29 28 26 25 24 24 24 23 23 23 24 24 24 24 24 24 23 21 20 21 25 26 23 19
24 22 20 16 14 13 14 17 31 34 32 35 37 33 29 26 23 19 19 19 15 12 17 18 18 21 19 14 16 17 12 9 13 15 13 9 10 12 13 16 20 21 21 23 22 22 23 22 21 22 21 19 19 19 20 21 23 26 28 28 27 29 31 31 31 30 28 26 26 25 24 23 22 23 23 23 23 23 22 22 21 19 18 21 23 22 18
19 21 22 18 17 17 17 18 25 35 32 32 35 34 30 27 24 22 22 23 21 15 18 24 22 19 17 14 15 15 11 10 15 16 13 12 12 12 12 14 17 19 20 19 19 19 21 22 22 22 21 20 20 19 19 19 21 24 26 26 24 25 28 31 32 32 32 30 28 27 26 25 23 23 23 23 23 23 23 23 22 21 20 20 21 22 21
19 20 20 19 17 15 16 17 19 29 29 28 32 33 31 29 27 25 21 22 23 19 19 23 21 17 16 13 13 12 10 10 13 13 12 13 13 11 12 12 11 11 14 15 15 16 18 20 22 21 21 20 19 18 19 19 19 20 22 24 25 23 24 27 29 31 34 33 32 30 28 27 26 25 25 25 25 25 25 24 24 23 22 21 21 23 24
19 19 17 19 17 12 14 16 19 21 20 22 30 34 33 29 27 26 21 19 24 24 20 18 15 15 16 13 10 9 9 9 10 10 10 11 10 9 12 15 12 10 13 13 13 16 18 18 19 20 21 20 18 17 18 18 19 19 20 22 24 23 21 22 24 28 32 34 34 33 31 30 29 28 27 27 27 27 26 26 26 26 25 24 23 23 24
15 18 18 17 15 15 17 18 22 21 14 12 18 25 32 33 31 28 25 22 23 23 21 16 12 13 13 13 12 10 8 8 9 8 9 11 12 11 13 16 17 17 18 16 14 16 17 16 17 19 21 21 19 18 18 18 19 20 20 21 23 23 21 20 21 24 28 32 35 34 34 33 32 30 29 28 28 28 28 28 28 28 27 26 26 25 25
11 18 19 14 12 18 20 17 20 23 16 9 8 10 21 32 32 28 24 20 18 18 17 15 13 12 12 13 16 15 9 9 9 7 7 11 13 12 12 15 18 19 19 17 16 18 16 15 17 19 20 21 20 18 18 17 18 20 21 22 22 22 20 20 21 21 23 28 33 35 35 35 34 32 30 30 30 29 29 30 29 29 29 28 28 28 27
10 14 17 17 15 19 23 21 20 21 17 12 10 9 11 17 20 20 19 16 15 15 15 14 12 12 11 10 11 10 7 7 7 8 10 11 12 14 18 22 24 22 19 16 17 18 16 15 17 18 19 20 20 19 18 18 19 20 22 22 21 19 18 19 21 21 21 23 29 34 36 35 34 33 32 31 31 30 31 31 31 30 30 30 29 29 29
9 8 10 15 15 16 22 24 20 20 19 12 8 11 11 11 12 14 15 15 15 16 17 15 12 12 12 10 8 8 10 11 12 14 16 16 16 19 22 24 24 22 20 18 19 18 17 17 18 19 19 20 20 20 19 18 19 21 22 23 21 18 17 18 20 21 20 21 25 30 34 34 34 33 33 33 32 32 32 32 32 32 31 31 31 31 30
11 10 9 10 12 11 16 21 21 23 22 14 8 10 13 12 11 14 17 18 17 16 14 14 14 15 16 13 8 11 15 18 18 18 18 18 18 20 23 24 21 18 19 22 22 20 19 20 20 21 21 21 21 21 20 19 20 21 21 22 22 20 19 19 20 21 20 20 23 26 30 33 33 33 34 34 34 34 34 34 35 35 34 33 32 32 32
10 12 12 8 8 6 8 15 18 19 20 17 11 9 10 11 11 17 19 16 15 16 15 14 15 17 14 8 8 11 15 18 19 18 18 19 19 20 22 22 18 17 20 22 22 22 23 23 22 23 24 24 23 23 22 21 21 20 20 20 21 20 20 20 22 22 22 22 23 24 27 31 33 33 34 35 35 35 36 36 37 37 37 36 35 34 34
11 13 14 8 10 10 8 10 9 12 18 20 16 11 9 10 12 16 14 12 14 18 19 17 16 15 14 14 16 17 18 20 20 18 18 20 21 22 22 20 18 18 20 21 23 25 26 25 24 25 26 26 26 25 25 24 22 20 21 21 20 20 19 20 22 23 23 23 24 25 27 30 32 33 33 34 35 36 37 38 39 40 40 40 39 37 37
13 12 14 8 9 11 9 8 9 13 17 14 13 14 12 9 12 16 12 12 18 20 21 23 22 21 24 25 25 24 23 21 20 20 21 21 21 23 23 22 20 19 18 20 23 25 27 26 26 27 27 28 28 28 28 27 23 22 22 22 21 20 20 20 22 23 25 25 26 28 30 31 31 32 33 35 35 37 38 40 41 42 42 42 42 41 39
15 13 14 8 6 8 4 7 12 13 12 11 13 18 16 10 12 17 13 12 17 22 25 29 30 28 28 29 30 30 28 25 24 23 23 22 21 21 23 24 22 19 20 22 23 24 26 25 25 26 27 27 28 29 30 29 27 25 24 24 23 22 21 21 22 24 26 27 29 31 31 32 33 34 35 36 36 37 38 40 41 42 42 42 42 42 41
17 15 11 3 8 8 5 7 10 6 5 8 14 17 16 13 14 18 15 12 14 21 25 26 28 28 29 29 29 28 27 28 28 27 25 25 25 24 25 26 23 21 22 23 23 23 25 25 25 27 26 26 26 27 29 30 30 29 27 25 24 23 23 22 23 25 27 29 32 34 34 34 36 37 37 37 37 38 38 40 41 42 42 42 43 43 44
20 15 6 4 9 5 1 8 12 8 4 4 11 13 14 13 13 14 14 13 13 18 19 18 21 24 26 27 27 25 25 27 29 29 28 29 29 28 27 27 24 22 23 24 23 23 24 25 27 27 27 26 26 26 28 29 30 30 30 28 25 24 25 24 24 25 27 28 31 35 37 38 39 39 40 40 40 40 41 41 42 43 43 44 44 45 45
25 25 17 7 4 2 7 11 13 9 6 3 10 14 14 12 12 12 13 11 11 13 15 17 19 20 21 22 22 23 25 27 28 29 28 29 29 28 27 26 24 23 24 25 25 24 24 25 27 28 28 28 26 26 27 28 28 29 30 30 28 25 25 25 26 26 27 28 30 34 37 40 41 42 43 43 43 44 44 45 45 46 46 46 46 47 47
19 26 24 16 7 3 7 13 15 9 1 6 13 18 17 13 11 11 10 8 7 8 11 14 16 15 15 17 17 17 20 22 24 25 26 26 25 25 25 25 25 25 25 26 26 26 25 24 25 27 29 29 27 26 26 26 26 27 29 30 29 26 25 26 27 28 29 30 31 32 36 40 42 44 45 46 46 47 47 47 47 47 48 48 49 48 48
14 18 20 19 14 8 8 13 17 15 14 18 21 21 18 15 13 12 10 9 10 10 11 12 13 11 11 12 13 13 14 15 17 19 20 21 21 21 22 23 25 25 26 26 28 28 27 24 24 26 29 29 28 26 25 24 25 26 28 30 29 28 27 26 27 29 31 32 33 34 36 39 41 44 46 47 47 47 47 48 48 48 49 49 49 48 48
14 18 22 23 22 20 19 19 18 19 23 28 28 25 22 19 18 17 15 14 15 14 14 14 14 12 11 11 10 11 11 12 13 14 15 17 18 18 19 20 22 24 26 27 27 28 28 27 26 26 28 29 28 24 22 21 22 23 25 28 29 29 27 26 27 28 30 32 33 34 35 37 39 41 44 44 45 45 45 46 46 47 48 48 48 49 49
14 15 16 17 19 20 19 16 14 19 27 32 32 31 29 25 24 23 22 21 20 18 17 17 17 16 15 14 13 13 13 13 13 13 15 16 17 17 17 18 19 21 23 26 27 26 26 27 27 26 26 28 28 25 22 20 20 20 21 24 26 27 27 26 25 26 27 28 29 30 31 32 33 34 35 36 37 37 38 39 41 42 44 45 46 47 46
17 15 13 15 17 18 18 18 18 21 27 34 36 36 34 30 28 28 28 27 25 23 21 19 19 19 18 17 17 17 16 15 15 16 16 16 17 18 18 18 19 19 20 23 25 25 25 26 27 27 26 27 28 26 23 22 21 20 19 20 21 23 23 23 23 24 24 25 25 26 27 28 28 28 27 28 29 30 31 33 34 35 37 38 38 39 40
21 21 19 17 19 21 24 27 28 28 30 36 40 40 38 35 32 31 32 33 33 31 27 24 23 23 21 20 20 19 18 18 18 19 19 19 20 21 21 22 22 22 21 21 23 24 24 25 26 27 27 26 26 25 23 23 22 22 21 20 20 20 20 21 21 22 22 23 23 24 25 26 26 25 25 26 27 27 28 28 29 30 31 32 32 32 33
21 24 24 23 24 27 29 32 34 35 35 37 40 42 42 41 40 39 40 41 41 39 35 32 31 30 29 28 27 24 22 21 21 21 22 23 24 24 25 26 25 24 23 23 22 22 23 25 26 27 26 25 24 23 23 23 24 24 24 23 22 21 21 22 22 22 22 22 23 23 23 24 24 24 25 26 27 27 26 26 27 28 29 29 29 30 31
24 25 26 27 30 32 32 32 33 34 34 36 40 43 43 43 43 42 43 43 43 42 40 38 37 37 37 36 35 33 31 29 27 26 25 26 27 28 28 27 26 24 24 24 23 23 24 25 26 27 26 25 23 22 22 23 24 24 25 24 24 24 24 24 24 24 24 25 25 25 24 25 25 25 25 26 26 27 26 26 27 27 29 30 31 32 33
29 27 26 28 31 32 32 32 32 32 32 35 39 42 44 44 43 41 40 40 39 37 37 36 35 36 37 37 37 35 34 34 32 30 28 29 30 30 30 29 27 26 25 24 23 24 25 26 27 27 25 24 22 22 22 23 23 24 25 26 26 25 25 26 26 25 25 25 25 24 25 25 24 25 25 26 27 27 28 28 29 30 31 32 33 34 35
35 32 31 32 32 32 31 30 29 29 30 32 35 40 43 44 43 41 38 37 35 34 33 33 32 32 33 34 34 34 34 34 33 30 28 30 30 30 31 31 30 29 29 27 25 24 25 26 26 26 25 24 24 24 24 24 24 25 26 26 27 27 27 28 27 26 25 25 25 25 25 25 25 26 27 28 29 29 30 30 31 32 33 34 34 34 35
38 37 36 36 34 32 30 30 30 29 27 28 31 36 39 42 43 41 38 36 35 33 31 31 32 31 31 31 32 31 30 30 29 25 23 24 23 23 24 24 21 21 24 27 25 25 25 25 25 25 25 25 25 25 25 25 26 26 26 27 27 28 28 27 27 26 26 26 26 26 26 27 27 27 28 28 29 29 29 30 31 32 32 33 33 32 32
31 37 40 40 38 35 33 32 33 32 30 29 29 33 37 40 42 41 38 36 34 31 28 28 29 29 28 29 29 27 25 24 23 20 19 21 20 19 20 20 18 18 20 22 21 22 23 24 24 24 25 26 26 25 25 26 26 26 26 26 26 26 26 25 25 26 27 27 27 27 27 27 27 27 27 27 28 28 27 27 28 29 30 30 30 30 30
23 30 36 39 40 39 38 36 34 34 33 31 29 31 35 38 40 40 39 37 33 30 26 25 26 27 27 26 25 24 23 21 18 17 17 20 21 21 21 22 23 23 22 21 20 21 23 24 23 23 24 25 25 25 24 24 25 26 26 27 26 26 25 25 25 25 25 25 26 26 26 25 25 25 25 24 24 25 25 25 25 27 28 28 29 29 30
19 23 28 33 35 37 39 39 37 36 35 32 29 29 33 34 36 39 40 38 34 30 26 23 24 26 26 24 23 24 24 22 19 18 19 20 22 22 22 23 24 25 24 23 22 23 25 25 25 24 24 24 24 25 25 25 25 26 26 25 25 24 24 23 23 23 23 23 23 23 23 23 23 22 22 22 22 23 24 24 24 26 28 30 30 30 32
16 18 20 22 25 29 31 33 34 34 33 30 27 27 29 32 34 38 39 37 35 31 26 23 23 24 24 22 20 21 23 22 19 18 19 21 22 24 25 25 24 22 22 22 23 24 25 25 25 26 26 25 25 25 25 25 26 25 24 22 22 21 21 20 20 20 20 20 20 20 20 21 20 19 19 20 21 22 24 25 26 27 29 31 31 30 31
13 16 16 16 17 20 21 22 23 24 24 24 23 25 28 29 32 36 38 38 36 32 27 24 23 24 23 20 18 18 21 21 18 15 16 17 20 23 25 26 25 22 20 20 22 23 22 22 23 24 25 26 25 24 23 23 24 23 21 21 21 20 19 19 18 18 18 18 18 18 18 19 19 19 19 20 21 22 23 25 27 27 28 30 30 28 28
4 9 11 13 14 16 17 17 16 15 16 17 19 23 26 28 30 34 37 38 36 33 28 26 25 24 23 22 21 21 22 21 19 16 14 13 16 20 23 23 22 22 20 19 19 19 18 18 19 19 19 20 22 21 20 20 20 19 18 19 21 21 21 20 20 20 20 20 21 20 20 20 20 20 20 21 22 23 24 26 27 26 26 27 28 28 26
4 2 1 5 6 8 11 14 14 13 14 16 18 21 23 26 29 33 35 36 35 33 31 29 28 27 25 24 24 24 23 23 23 21 16 13 14 18 20 20 20 20 19 17 16 16 16 15 15 14 14 15 17 18 18 17 17 16 15 15 17 19 20 20 19 19 19 19 19 19 18 18 19 20 21 22 23 23 24 24 24 24 23 24 26 28 28
7 5 3 2 1 3 6 10 13 15 16 17 18 20 23 27 30 32 34 35 34 33 32 31 31 31 28 26 25 25 23 23 24 23 19 15 13 14 15 17 18 18 17 15 14 14 14 14 13 13 13 14 15 16 16 16 16 16 16 15 15 16 18 18 17 17 17 17 17 17 17 18 19 20 21 21 21 21 22 21 21 22 24 24 24 26 27
9 8 7 5 4 4 5 7 10 14 16 19 21 23 26 29 31 32 33 33 31 30 29 30 30 29 26 23 23 23 22 22 22 21 18 15 13 12 12 13 14 15 15 14 14 13 13 12 12 12 12 13 14 14 15 16 16 16 17 16 16 16 16 16 16 16 17 18 18 18 18 19 19 19 19 20 20 20 21 21 22 23 25 25 26 27 28
17 12 9 8 7 7 6 6 7 9 12 16 20 23 27 29 28 27 28 28 27 27 28 28 27 26 23 21 20 20 21 21 20 19 16 15 14 13 12 12 12 13 13 14 14 14 13 13 13 13 13 14 14 14 15 15 15 15 15 16 16 17 16 16 16 17 18 19 19 19 19 19 19 19 20 21 22 22 22 22 24 25 26 27 28 28 28
31 24 17 11 8 7 8 9 9 9 10 12 14 17 23 27 26 23 23 24 24 24 26 28 29 28 25 21 19 19 19 20 20 18 16 16 16 15 15 14 13 13 14 14 14 14 14 14 14 14 14 14 15 15 16 16 16 16 16 17 17 18 18 18 18 19 19 19 19 20 20 20 21 21 22 22 23 24 24 24 25 25 26 25 24 24 24
40 35 30 23 16 12 11 11 10 9 9 12 13 14 17 20 21 22 25 30 32 31 29 29 32 32 28 24 22 20 18 18 18 16 16 16 16 16 16 16 15 15 15 14 14 14 14 14 14 14 13 13 14 14 15 16 16 17 17 18 18 19 19 19 19 19 19 19 19 20 20 21 21 21 21 22 23 23 23 23 23 23 23 22 21 22 22
38 38 37 33 28 22 17 13 12 11 12 16 18 16 15 18 21 23 27 33 36 36 34 32 33 33 31 29 26 23 21 19 17 15 15 16 16 16 16 15 15 16 15 15 15 14 14 14 14 14 14 14 14 14 14 14 14 14 15 15 15 16 16 16 16 16 16 17 17 17 17 17 17 17 18 19 20 20 20 21 21 21 21 21 22 22 22
32 33 35 36 35 31 26 21 17 18 18 19 20 19 18 20 23 25 26 26 27 29 32 32 31 30 30 30 29 28 27 24 20 18 18 18 18 18 18 17 17 17 16 15 15 14 14 14 14 14 14 14 14 14 14 14 13 13 12 12 11 11 11 11 12 11 12 13 14 14 14 14 14 15 15 16 16 17 17 17 18 18 19 19 20 21 21
28 29 30 31 32 31 30 28 27 27 26 25 24 24 23 24 27 31 32 32 30 30 31 32 30 30 30 30 30 30 28 26 24 23 23 23 23 23 22 21 20 20 18 17 16 15 14 14 13 13 13 13 14 14 14 14 13 13 12 12 11 10 10 10 10 10 10 11 12 13 13 13 13 14 14 15 15 15 15 16 16 16 16 16 17 17 18
24 25 26 26 27 27 27 27 27 27 26 25 26 26 26 26 27 27 29 31 32 32 32 32 31 31 31 30 29 28 28 28 28 28 27 27 27 26 24 23 22 21 20 19 18 17 16 15 14 14 13 13 13 13 13 13 13 14 13 13 12 12 12 12 12 12 12 12 12 13 13 14 14 14 15 15 15 14 15 15 15 15 15 15 15 15 16
19 20 21 21 21 22 23 24 24 24 22 21 22 23 24 24 23 23 23 24 25 25 26 27 27 27 27 26 26 26 26 27 27 26 25 24 24 23 22 21 21 20 19 18 17 16 15 15 14 13 13 12 12 12 12 12 13 13 14 13 13 13 13 13 13 13 13 14 14 14 15 15 16 16 15 15 15 15 15 15 15 15 15 15 14 15 15
14 15 16 17 16 17 18 19 19 19 19 20 21 22 22 21 20 20 19 19 19 19 19 20 20 20 20 19 20 20 19 18 17 16 15 15 15 15 14 14 14 14 14 12 10 8 7 7 7 7 7 8 8 9 9 10 10 11 11 12 12 13 13 13 14 14 15 15 16 16 16 17 17 17 17 16 15 15 15 15 15 15 15 15 15 14 14
12 11 12 12 11 12 13 14 14 14 16 17 18 19 19 18 17 17 17 16 16 15 15 15 15 15 15 15 14 14 14 13 11 10 9 9 8 7 7 7 7 6 6 6 5 4 3 2 3 4 5 5 6 7 8 8 9 10 10 11 12 12 13 14 14 14 15 16 16 16 17 17 17 17 17 16 15 15 15 15 15 15 16 16 16 15 15
12 10 8 8 8 8 8 9 10 11 13 15 15 15 16 15 14 13 14 13 13 12 12 12 12 12 12 12 11 10 10 10 9 8 8 7 6 5 5 4 4 4 3 2 2 1 1 2 3 4 5 6 7 7 8 9 10 10 11 12 13 13 14 14 15 15 16 16 17 17 17 17 17 17 17 17 17 17 16 16 16 16 16 16 15 15 15
12 10 7 5 6 6 6 7 8 9 10 11 11 11 12 12 11 10 10 10 10 9 9 9 9 9 8 8 8 8 7 7 6 5 5 4 3 2 2 2 1 1 1 0 1 3 4 4 4 5 6 6 7 8 9 9 10 11 11 12 13 14 14 15 15 16 16 17 17 17 18 18 18 18 18 18 18 18 18 18 18 17 17 16 16 15 16
14 12 8 4 3 3 2 2 3 5 6 6 6 7 8 8 7 7 7 7 7 7 6 6 5 5 5 5 5 5 4 4 3 3 2 2 1 2 2 2 3 3 3 4 4 5 6 7 7 7 8 8 9 9 10 10 11 11 11 12 13 14 14 15 15 16 17 17 17 17 18 18 17 17 18 19 19 19 19 20 20 19 18 18 18 17 17
18 15 11 6 4 3 2 3 3 3 3 1 1 2 3 3 3 4 6 7 7 7 6 5 4 4 4 3 3 3 2 2 2 2 2 2 3 3 4 5 5 6 6 7 7 8 9 9 10 10 11 11 11 12 12 12 13 13 13 13 13 14 14 15 15 16 16 17 17 18 18 18 18 18 18 19 20 20 21 21 22 22 20 19 20 20 20
Wind_Direction
239 227 229 254 263 221 208 210 209 201 200 204 207 205 198 194 197 190 179 176 169 167 161 147 149 150 137 146 156 157 160 158 131 138 163 168 168 177 181 185 198 203 202 212 219 220 216 207 203 206 210 209 210 216 220 222 225 227 229 228 228 230 230 226 225 224 219 216 215 216 217 219 222 226 229 231 234 239 243 243 243 245 249 256 260 261 260
239 234 238 244 255 278 244 216 208 203 200 202 206 207 200 195 197 193 180 171 160 157 155 149 151 151 139 131 146 154 151 158 160 140 144 170 186 192 192 194 202 203 200 204 210 209 204 202 201 202 205 209 211 216 222 226 227 228 230 232 229 230 230 228 226 226 224 221 217 215 216 215 217 221 225 228 231 235 240 243 243 242 242 246 252 258 258
244 239 237 241 241 258 278 238 209 202 201 200 203 207 204 198 196 195 188 178 171 166 166 164 156 155 154 137 134 143 135 140 165 156 142 163 198 207 198 185 181 182 184 187 191 193 195 195 195 197 200 205 210 216 223 229 232 231 233 237 236 234 233 231 228 226 226 225 222 219 218 217 218 220 223 226 229 232 237 241 243 241 237 238 246 256 261
254 241 231 235 232 237 273 269 216 200 201 199 200 205 205 200 193 194 194 185 176 165 160 164 161 157 158 146 140 153 147 127 141 148 149 155 167 184 185 177 178 179 179 180 182 187 192 194 195 196 199 202 208 215 221 228 234 236 237 241 245 243 240 237 232 227 224 224 225 223 221 221 221 222 225 228 232 235 238 242 246 246 243 241 244 254 263
251 242 230 224 219 226 260 264 215 200 205 205 201 203 207 205 197 195 196 188 181 173 160 160 164 167 167 155 150 162 164 152 149 154 166 167 161 159 162 170 184 187 188 197 200 198 195 195 197 198 200 204 208 214 221 226 232 237 238 241 245 246 246 245 241 233 227 223 224 225 223 223 224 225 227 229 233 237 241 246 250 251 249 248 248 252 261
241 239 234 221 214 221 233 220 199 199 210 211 206 203 204 206 204 200 197 186 182 185 182 167 159 169 181 183 177 169 165 173 177 177 182 179 169 165 170 179 187 190 192 198 204 205 199 194 198 201 202 206 208 211 220 226 229 234 236 239 243 244 246 250 249 243 234 226 223 224 224 224 225 227 228 229 232 237 243 247 250 253 254 255 255 255 259
239 229 230 223 214 217 219 210 205 211 223 225 216 208 203 202 202 200 196 185 178 184 191 185 162 157 173 185 183 173 171 181 178 175 191 204 208 205 196 195 198 199 197 192 190 198 199 195 201 204 203 206 212 216 223 229 231 233 233 234 239 242 244 251 253 251 243 232 225 224 225 226 226 227 229 231 233 237 242 246 250 254 258 260 262 264 264
230 213 219 225 218 214 218 219 214 215 228 247 246 224 203 197 196 194 187 175 164 168 180 186 178 163 159 168 171 166 165 172 166 164 194 217 227 227 221 222 221 215 214 211 203 204 207 207 210 211 207 208 213 218 225 231 235 236 233 231 234 237 242 249 252 254 251 240 230 226 226 227 228 228 230 233 235 238 242 246 251 255 258 262 264 267 268
227 212 220 225 230 220 213 216 211 207 221 237 238 238 209 184 181 180 174 167 165 171 181 185 186 182 170 167 175 179 187 188 190 209 210 204 210 214 216 224 225 221 223 224 215 214 221 222 221 220 216 213 212 215 222 231 236 238 235 229 227 231 240 249 252 254 255 248 237 229 227 229 230 231 233 235 238 240 242 246 251 255 259 262 265 267 270
237 234 238 223 223 216 208 213 211 203 212 222 224 233 222 189 175 173 176 188 194 196 200 195 188 187 177 164 164 184 196 198 202 211 209 202 204 208 213 224 230 228 225 224 223 224 227 227 227 228 226 223 219 216 219 226 233 238 236 230 226 228 237 247 252 254 254 250 242 234 231 231 232 232 234 237 239 241 243 246 250 255 259 261 264 266 268
245 246 270 237 213 206 211 219 213 202 206 211 217 225 207 188 193 195 196 205 201 189 187 180 169 164 160 156 170 191 199 205 207 210 213 213 214 215 219 228 237 235 225 221 222 226 226 226 228 230 231 232 230 225 222 224 229 234 236 234 231 231 237 244 250 252 251 247 242 237 234 234 234 234 235 238 240 243 245 247 249 253 257 260 262 264 266
258 256 262 229 171 150 186 205 200 192 194 197 204 210 180 157 178 193 193 197 195 189 189 178 158 151 154 177 222 213 210 218 219 219 222 222 223 224 227 234 240 238 229 224 222 224 227 227 228 230 232 234 234 232 228 227 229 232 234 235 234 234 238 245 249 251 249 244 240 237 235 235 235 236 237 239 242 244 245 247 248 251 254 258 260 262 264
254 257 247 202 115 101 138 169 168 165 177 189 196 191 161 144 161 169 165 172 184 193 199 189 166 162 186 223 236 224 220 228 229 228 227 225 224 227 231 237 239 233 228 224 222 224 228 228 229 231 232 233 234 235 234 232 232 233 233 232 232 235 239 245 250 251 248 244 240 237 236 236 236 237 239 241 243 244 246 247 248 249 252 254 257 259 262
242 245 239 210 113 106 138 159 162 160 161 172 181 164 143 139 157 155 155 184 194 195 198 197 193 195 205 219 229 230 230 234 235 234 233 231 229 229 234 241 239 231 227 226 224 225 227 227 229 231 233 234 235 236 238 236 235 237 237 233 231 235 240 246 250 250 246 243 241 240 238 237 237 238 240 242 243 244 246 247 247 249 250 252 254 257 260
236 232 237 233 101 82 104 168 182 177 150 145 163 153 135 132 162 165 169 193 201 204 210 212 214 217 221 226 233 238 238 236 235 234 236 238 236 234 238 243 240 232 229 228 226 225 225 225 226 228 231 235 235 236 239 239 237 239 242 239 234 235 240 245 249 250 246 242 240 240 239 238 239 240 240 242 244 245 246 247 248 249 250 252 254 256 258
229 226 231 204 94 67 50 133 154 158 133 160 174 158 142 150 168 175 182 190 197 207 216 220 220 222 226 229 233 236 235 232 231 232 235 238 239 239 240 241 236 231 232 231 227 226 224 222 222 224 227 230 234 236 238 240 240 240 243 244 239 237 239 244 248 250 248 243 240 240 239 239 240 241 242 243 244 245 247 248 249 250 252 253 255 256 257
222 223 220 123 114 109 143 146 139 118 86 190 195 170 158 167 169 173 185 191 197 205 209 210 212 215 220 225 230 232 229 227 228 230 232 235 239 241 242 239 233 230 234 234 229 227 226 222 221 223 225 228 232 235 237 240 240 240 243 245 243 239 238 241 245 250 251 248 244 240 238 238 240 241 243 245 246 247 248 249 250 251 252 253 254 255 256
216 220 227 220 162 189 232 203 175 136 62 313 222 191 177 179 177 177 188 194 198 201 200 200 204 210 217 224 228 230 229 229 230 230 230 234 239 242 243 240 235 233 235 235 232 230 229 227 224 222 224 228 233 237 239 240 240 239 240 243 244 242 241 240 242 247 250 251 248 244 240 240 241 242 243 245 246 247 248 249 250 251 251 252 253 255 256
221 222 228 231 227 265 256 227 207 189 224 274 230 203 191 193 196 196 202 214 222 219 214 209 204 206 214 217 219 224 227 229 232 233 233 236 241 244 245 243 239 237 236 236 235 233 232 232 230 226 225 228 232 237 240 243 241 237 237 240 243 243 243 242 242 243 245 247 247 247 244 242 242 243 244 245 246 247 248 248 250 250 251 251 252 253 254
244 232 227 224 221 233 250 233 220 220 234 240 233 221 210 211 221 225 230 247 260 260 253 236 220 218 225 223 221 227 230 228 229 232 235 238 241 243 244 244 244 243 241 239 238 237 236 237 236 232 228 228 230 234 239 244 245 241 237 238 240 241 242 241 240 240 242 243 244 246 246 244 243 244 245 246 247 249 250 251 251 252 251 251 251 252 254
257 241 228 224 227 236 244 239 230 233 238 237 235 234 229 226 232 239 246 257 263 266 269 262 251 249 254 250 245 249 248 241 237 238 241 243 244 244 244 246 248 248 246 244 242 240 238 239 240 238 233 230 229 230 235 242 246 245 240 238 237 238 240 240 240 240 241 243 244 245 247 247 246 246 247 249 252 253 254 255 255 255 254 254 253 254 255
258 251 242 240 243 248 248 243 243 246 242 236 234 236 237 237 239 242 246 252 258 262 267 268 266 264 263 261 260 259 256 254 254 256 257 255 254 252 250 251 253 253 251 248 247 246 242 240 242 242 239 234 230 228 230 237 241 242 240 238 237 236 236 237 238 239 240 242 243 244 245 247 248 248 250 252 254 257 258 259 259 259 259 258 258 259 261
252 249 245 248 256 257 248 241 248 253 244 233 230 232 237 241 244 246 247 250 253 257 261 263 265 263 260 258 257 256 255 258 262 264 263 263 265 265 261 259 258 258 256 252 250 249 247 245 244 244 242 237 232 228 227 232 237 238 237 237 238 238 238 239 239 240 240 240 240 239 240 242 245 246 249 252 254 256 258 260 262 263 263 263 264 264 266
252 241 235 242 255 257 246 237 237 239 238 233 230 231 236 242 246 250 253 255 256 257 258 258 260 262 262 260 258 255 254 258 265 270 271 271 272 272 270 266 263 262 261 259 255 252 249 247 244 244 242 237 233 230 229 231 235 236 235 235 236 237 239 242 243 244 244 244 243 242 243 244 247 248 250 253 255 256 257 259 262 263 265 266 266 266 266
250 241 235 238 246 246 242 235 231 231 234 236 234 234 237 242 245 249 252 255 257 258 257 256 258 261 264 266 265 264 263 265 269 275 277 276 275 273 270 268 267 267 266 264 260 256 252 247 243 241 239 235 232 232 234 235 236 236 237 237 237 237 237 238 240 241 242 242 242 243 245 246 247 249 251 252 254 255 256 256 258 259 261 263 263 264 265
242 239 234 235 239 239 239 238 236 235 236 236 234 233 235 238 241 243 246 249 251 253 253 253 254 257 262 266 268 269 269 269 270 272 273 275 276 274 271 270 270 270 268 265 262 259 255 249 242 238 236 234 233 236 239 239 238 238 237 237 238 238 238 238 238 238 239 240 241 242 243 244 246 248 249 251 253 254 255 255 257 258 259 261 262 264 265
239 237 236 238 240 239 238 239 239 239 239 237 233 231 231 233 234 236 237 240 243 245 246 247 247 250 254 259 262 265 267 268 268 267 265 265 269 271 272 273 274 273 271 268 263 260 256 250 243 238 236 235 235 237 239 239 238 238 236 235 235 235 235 236 236 237 238 240 242 243 243 245 247 249 250 252 253 255 256 257 258 260 261 263 265 267 269
241 235 233 237 240 239 238 240 240 239 237 236 233 230 229 230 231 230 228 229 232 233 235 236 236 237 240 246 251 256 259 261 262 261 258 257 259 263 268 271 273 272 270 268 264 259 255 251 246 242 241 240 239 239 239 238 237 236 235 234 233 232 232 233 234 236 238 240 242 243 244 245 248 250 252 254 256 257 258 259 260 262 264 265 267 269 271
244 239 237 239 242 241 239 241 242 242 239 236 232 229 228 228 229 225 220 219 222 222 222 224 225 225 227 233 239 243 248 252 254 253 252 252 252 254 259 264 266 264 264 264 261 256 253 251 247 245 243 242 241 240 240 239 238 237 236 236 236 236 236 236 236 236 238 240 241 243 245 246 248 250 252 254 255 257 259 261 262 264 266 268 270 272 275
246 242 240 241 243 244 243 244 243 243 243 242 237 232 228 228 228 223 215 211 213 214 214 217 220 219 220 225 230 232 236 241 247 248 247 248 248 245 244 245 247 250 255 255 252 249 248 247 246 244 243 242 239 237 237 237 237 236 235 236 236 237 237 237 236 236 237 239 240 242 243 244 246 248 250 252 255 257 259 261 264 267 270 273 277 280 283
247 242 240 241 242 243 245 248 248 248 247 247 245 238 231 228 226 222 214 209 208 209 211 214 215 215 217 221 224 224 222 223 230 235 235 237 240 239 235 234 237 244 250 250 246 243 241 240 238 237 239 239 237 233 230 230 231 231 231 232 233 234 234 236 237 238 240 241 242 243 244 244 246 248 251 253 256 259 262 264 268 271 275 279 283 286 288
248 241 238 238 239 240 243 245 249 251 251 249 246 240 232 228 224 218 213 210 209 209 210 212 213 212 213 216 220 224 223 219 219 223 226 229 231 230 228 229 233 238 243 245 245 243 241 238 235 233 232 232 233 231 228 227 227 228 228 229 230 232 233 234 235 236 238 240 241 243 245 247 249 252 255 258 261 264 267 270 273 277 280 283 286 288 289
256 246 243 242 240 241 244 246 249 251 252 250 246 239 231 227 222 214 210 210 210 207 206 212 214 212 209 209 213 217 217 215 212 212 215 219 221 222 223 225 227 231 233 233 234 237 239 238 235 231 229 228 229 230 231 233 232 228 224 224 225 226 227 228 231 234 236 239 242 245 248 252 255 256 259 262 265 269 273 275 278 280 282 283 283 284 285
263 250 248 247 245 245 248 251 255 255 250 245 240 233 227 224 218 211 208 209 210 207 207 213 215 211 206 205 204 204 204 201 196 191 189 191 198 204 209 214 219 224 225 223 225 229 231 231 229 228 228 227 225 222 224 230 231 226 219 215 216 217 219 221 223 226 230 233 236 239 244 249 252 253 254 256 260 263 267 271 273 275 277 278 279 280 283
274 248 238 236 242 248 247 245 246 246 239 232 229 224 220 215 209 205 207 210 210 210 213 218 216 209 204 202 203 205 203 197 192 189 181 173 177 186 194 203 213 219 220 218 219 222 223 222 222 223 223 223 221 218 215 218 222 220 216 213 214 216 218 219 221 226 231 236 239 241 243 247 251 253 254 258 262 264 265 268 271 273 275 277 279 280 280
42 49 256 248 249 246 237 227 221 219 218 216 214 214 213 208 202 201 206 211 213 214 219 221 214 205 201 200 200 203 204 200 199 201 199 191 187 191 198 206 214 215 214 214 214 214 215 215 215 212 209 210 213 213 212 213 215 213 209 210 217 221 222 221 224 230 237 241 245 248 249 251 253 256 258 262 265 267 269 271 275 276 277 278 280 281 281
44 57 41 350 303 204 210 209 206 205 204 203 202 202 202 201 199 199 204 210 214 215 216 212 205 201 201 202 202 203 203 203 205 210 213 213 209 204 203 208 210 209 208 209 210 211 214 214 210 207 205 205 206 208 210 212 213 210 205 203 208 216 220 220 221 228 235 240 244 248 249 250 253 256 258 260 263 265 268 271 273 275 276 277 279 283 286
63 59 58 68 109 151 179 195 202 204 200 196 194 193 192 195 199 201 202 206 211 213 209 202 196 194 196 200 203 205 206 205 206 210 212 214 215 213 207 206 207 207 207 209 210 212 215 214 210 208 208 208 209 211 212 215 218 220 220 219 221 225 227 226 224 228 235 240 245 248 251 254 257 259 260 262 264 266 268 270 272 274 276 278 280 283 286
81 84 79 80 96 114 132 155 174 184 184 181 182 186 191 196 201 202 200 200 204 208 210 208 203 196 194 197 203 207 208 208 209 209 208 209 213 217 219 218 216 215 215 217 219 219 219 220 219 219 217 218 218 219 220 221 225 228 231 234 238 240 239 235 231 233 238 243 248 252 255 257 259 260 261 263 264 265 266 268 271 274 276 279 282 285 285
63 77 88 96 104 110 119 134 148 158 167 169 170 177 187 194 198 201 204 208 209 209 210 213 212 207 204 205 207 208 210 213 213 213 214 214 215 217 220 221 222 220 218 218 219 220 221 222 223 224 226 229 231 232 232 234 235 237 239 242 245 248 248 247 244 244 246 248 252 255 256 257 258 259 260 262 264 266 267 269 270 273 275 278 280 281 281
46 55 69 85 103 117 125 135 142 141 148 161 168 171 177 182 183 183 184 190 198 205 209 212 212 211 211 214 215 214 214 215 216 218 223 224 223 222 220 218 218 216 213 209 210 212 215 218 220 222 225 229 233 237 240 241 243 245 246 247 249 252 254 254 253 253 252 253 254 256 257 258 259 260 261 262 264 265 268 269 270 271 272 272 273 273 275
39 42 50 61 73 86 105 133 152 150 150 162 172 175 173 174 179 178 172 172 180 192 200 203 205 206 209 214 219 220 217 213 212 218 224 223 220 220 219 213 210 208 205 203 206 209 212 217 221 224 226 227 229 231 234 237 240 243 244 245 247 249 251 253 255 256 256 256 257 258 259 260 261 261 261 262 263 264 266 267 268 269 269 269 270 271 271
38 39 41 44 49 57 68 83 101 115 127 142 156 166 172 176 180 184 182 177 179 186 191 194 200 206 211 215 218 220 221 219 217 217 216 212 209 208 207 206 206 206 203 203 208 213 217 221 224 226 228 230 230 230 230 232 233 235 237 239 242 244 246 250 254 257 257 257 258 260 261 263 264 263 262 262 262 263 265 266 267 268 269 270 272 273 273
36 38 40 39 38 43 49 56 65 75 84 95 110 125 139 148 153 157 161 166 170 173 175 179 186 192 198 202 206 210 213 215 213 209 208 206 203 200 199 201 204 205 204 204 207 210 214 219 223 226 228 229 229 229 230 231 230 230 231 233 236 239 243 248 254 259 261 262 264 265 267 269 269 269 268 268 267 267 268 269 269 271 273 275 277 279 280
36 38 39 36 32 34 39 42 47 54 61 68 77 88 99 109 116 121 128 137 145 149 150 154 160 164 169 177 187 193 197 199 198 196 197 200 200 198 198 202 206 208 209 208 208 208 209 211 214 217 220 223 225 228 231 232 233 234 235 236 238 242 246 250 255 259 263 265 266 268 270 272 273 272 271 271 271 271 271 272 273 275 277 279 281 283 284
39 39 37 30 26 28 32 35 38 44 49 56 62 68 73 80 85 88 94 103 112 119 125 132 139 143 148 156 166 172 178 182 183 184 187 192 195 196 197 200 202 205 207 208 206 207 208 209 211 215 218 221 225 230 234 238 240 243 244 246 248 251 254 256 259 262 265 267 270 271 271 272 273 273 272 272 273 273 274 275 276 278 280 283 286 288 288
37 41 37 29 25 25 25 24 29 37 42 46 53 57 58 61 67 73 78 84 89 94 103 111 117 121 127 135 143 150 157 163 169 174 178 183 187 190 193 193 193 195 198 195 189 188 195 206 216 225 231 236 240 244 247 251 255 258 261 262 263 263 264 266 266 267 268 268 268 269 268 268 268 270 271 272 274 275 276 278 280 283 285 287 289 291 292
27 37 39 31 23 20 19 17 22 35 41 42 45 50 50 50 54 59 62 66 73 80 86 91 95 100 105 110 118 127 133 137 142 148 153 156 159 162 163 162 163 165 166 159 147 142 160 203 233 247 253 257 258 257 257 259 261 262 263 264 264 263 262 262 261 261 261 262 261 262 262 263 265 268 271 273 275 277 279 280 281 282 284 285 286 288 290
24 25 27 25 17 16 23 23 25 38 48 47 42 40 40 40 42 48 50 52 55 60 65 70 74 78 81 86 92 99 105 109 114 119 121 122 125 125 123 119 118 116 113 109 106 137 232 242 248 254 258 260 262 261 259 258 256 255 255 255 255 254 254 254 254 254 255 256 257 258 260 262 266 270 273 275 278 279 280 281 280 280 280 280 281 282 284
20 15 10 19 20 15 24 36 42 51 56 51 40 36 36 35 36 40 42 42 42 44 47 52 57 59 63 68 70 72 76 79 83 90 95 96 95 99 103 106 113 116 121 239 275 278 277 275 272 273 272 271 270 269 266 262 260 259 258 258 258 258 258 258 259 260 259 259 260 262 263 264 267 270 272 273 275 276 277 277 277 278 279 280 280 280 281
357 1 358 360 12 4 352 3 27 39 44 47 50 52 48 42 42 43 34 22 19 22 26 30 35 38 44 52 53 52 53 55 50 48 52 46 15 339 316 301 291 284 280 277 275 277 279 281 282 282 282 282 282 281 280 278 275 271 267 264 263 264 264 264 265 266 267 267 268 269 270 271 273 274 275 276 278 278 278 278 279 279 280 281 282 281 281
338 345 344 327 306 295 288 285 293 306 314 314 29 42 19 353 355 5 352 338 335 343 348 351 360 9 9 14 19 17 13 5 344 325 318 320 316 307 304 301 296 291 288 286 284 282 282 282 283 284 284 284 283 283 284 286 285 284 281 278 275 273 272 272 272 273 275 276 277 278 278 279 280 281 282 283 284 285 284 283 282 282 282 282 283 282 281
Height
3024 3027 3028 3028 3029 3029 3032 3036 3037 3040 3045 3047 3049 3052 3056 3059 3060 3061 3064 3066 3067 3069 3071 3072 3074 3077 3079 3080 3083 3084 3083 3085 3088 3090 3091 3093 3096 3099 3101 3103 3104 3106 3109 3111 3113 3115 3117 3119 3121 3122 3124 3126 3128 3130 3131 3133 3135 3136 3138 3139 3141 3143 3145 3148 3150 3152 3154 3156 3157 3159 3161 3163 3164 3166 3168 3169 3171 3172 3173 3175 3178 3180 3181 3181 3181 3182 3184
3024 3027 3028 3029 3029 3028 3029 3033 3035 3038 3041 3045 3048 3052 3055 3057 3060 3061 3063 3066 3068 3069 3071 3073 3075 3078 3080 3081 3083 3084 3085 3087 3089 3092 3093 3095 3096 3099 3101 3102 3103 3105 3108 3111 3113 3114 3116 3117 3118 3120 3122 3124 3126 3128 3129 3131 3132 3134 3135 3136 3138 3140 3142 3145 3148 3150 3152 3154 3156 3157 3159 3160 3162 3164 3166 3167 3169 3170 3171 3173 3175 3177 3179 3179 3179 3179 3181
3023 3025 3027 3029 3030 3029 3028 3030 3033 3036 3039 3043 3047 3050 3053 3055 3059 3061 3063 3065 3068 3069 3071 3074 3076 3078 3080 3081 3083 3085 3087 3088 3090 3092 3095 3096 3097 3099 3101 3103 3104 3106 3108 3110 3111 3112 3113 3115 3116 3118 3120 3122 3124 3126 3127 3129 3130 3131 3133 3134 3135 3138 3139 3142 3145 3148 3150 3152 3154 3155 3157 3158 3160 3162 3164 3165 3166 3168 3169 3170 3172 3174 3176 3177 3177 3177 3178
3020 3023 3027 3028 3029 3030 3028 3027 3028 3031 3035 3040 3044 3048 3051 3053 3057 3060 3062 3063 3066 3069 3071 3073 3075 3077 3079 3081 3083 3086 3087 3088 3090 3093 3096 3097 3099 3100 3101 3103 3104 3106 3107 3109 3110 3111 3112 3113 3115 3116 3118 3120 3121 3123 3125 3126 3128 3129 3131 3132 3133 3135 3137 3139 3142 3144 3147 3149 3151 3153 3155 3156 3158 3160 3162 3163 3164 3165 3167 3168 3170 3172 3173 3174 3176 3176 3176
3019 3021 3025 3027 3029 3029 3028 3025 3026 3030 3034 3038 3043 3047 3050 3052 3055 3058 3060 3062 3065 3069 3070 3072 3074 3076 3078 3080 3082 3084 3085 3087 3090 3092 3093 3095 3098 3100 3102 3103 3104 3105 3107 3108 3108 3109 3110 3111 3113 3114 3116 3118 3119 3121 3122 3124 3125 3127 3128 3130 3131 3133 3135 3136 3138 3141 3143 3146 3149 3151 3153 3154 3156 3158 3159 3160 3162 3163 3164 3166 3167 3169 3170 3172 3173 3174 3174
3020 3021 3025 3027 3027 3026 3027 3028 3029 3032 3035 3038 3041 3043 3047 3051 3054 3057 3060 3062 3065 3068 3070 3072 3074 3076 3078 3080 3082 3083 3085 3087 3089 3091 3092 3094 3096 3099 3101 3102 3103 3105 3105 3105 3105 3106 3108 3110 3111 3113 3114 3116 3117 3118 3120 3122 3123 3124 3126 3128 3129 3131 3132 3134 3135 3137 3140 3143 3146 3148 3150 3152 3153 3155 3156 3158 3160 3161 3162 3164 3165 3166 3167 3169 3170 3171 3172
3022 3023 3025 3025 3023 3025 3030 3031 3031 3033 3035 3036 3039 3041 3044 3049 3052 3056 3059 3061 3063 3066 3068 3071 3073 3075 3078 3080 3081 3084 3085 3087 3089 3091 3094 3095 3095 3096 3098 3099 3099 3101 3102 3102 3103 3104 3106 3108 3109 3110 3112 3114 3115 3116 3118 3120 3121 3122 3124 3125 3127 3128 3130 3131 3132 3134 3136 3139 3142 3145 3147 3149 3150 3152 3154 3155 3157 3159 3160 3161 3162 3163 3164 3166 3167 3168 3169
3023 3024 3024 3024 3024 3028 3033 3032 3031 3033 3035 3037 3039 3039 3041 3045 3049 3053 3056 3059 3061 3064 3067 3070 3072 3074 3076 3077 3080 3083 3084 3086 3089 3091 3094 3095 3095 3097 3098 3096 3096 3097 3099 3100 3102 3103 3105 3107 3108 3109 3110 3112 3113 3115 3116 3118 3119 3121 3122 3123 3124 3126 3128 3129 3130 3131 3133 3136 3139 3142 3144 3146 3147 3149 3151 3152 3154 3156 3158 3158 3159 3160 3161 3162 3164 3164 3166
3023 3025 3025 3026 3028 3029 3030 3031 3032 3035 3037 3039 3040 3041 3042 3044 3047 3050 3053 3057 3060 3064 3068 3071 3072 3073 3074 3077 3080 3082 3084 3086 3088 3089 3090 3092 3093 3094 3093 3091 3092 3095 3098 3100 3102 3103 3104 3105 3106 3108 3109 3110 3111 3113 3114 3116 3117 3118 3120 3121 3123 3124 3125 3126 3128 3129 3131 3133 3136 3138 3141 3142 3144 3146 3148 3150 3151 3153 3155 3156 3157 3157 3158 3160 3161 3162 3162
3026 3027 3027 3027 3026 3025 3026 3030 3033 3036 3038 3040 3042 3043 3043 3045 3047 3049 3053 3058 3062 3065 3069 3070 3070 3071 3074 3078 3080 3081 3082 3083 3084 3084 3086 3088 3088 3089 3089 3088 3090 3095 3098 3099 3101 3102 3103 3104 3105 3106 3108 3108 3109 3111 3112 3114 3115 3116 3118 3119 3121 3122 3123 3124 3125 3127 3128 3130 3133 3135 3137 3139 3141 3143 3145 3147 3148 3150 3151 3153 3154 3155 3156 3157 3158 3158 3159
3028 3029 3028 3024 3022 3024 3029 3032 3034 3036 3038 3040 3042 3044 3044 3047 3049 3053 3057 3060 3062 3063 3065 3066 3066 3069 3073 3077 3077 3077 3078 3079 3080 3082 3084 3085 3086 3086 3086 3087 3090 3094 3095 3096 3098 3099 3100 3102 3103 3105 3106 3107 3108 3109 3111 3112 3113 3115 3116 3118 3118 3119 3121 3122 3123 3125 3126 3128 3130 3132 3134 3136 3138 3140 3142 3144 3145 3147 3148 3150 3151 3152 3152 3153 3154 3155 3156
3029 3030 3028 3025 3024 3027 3030 3033 3035 3035 3037 3040 3042 3042 3042 3045 3047 3050 3054 3058 3059 3059 3060 3061 3063 3068 3072 3074 3073 3073 3074 3076 3078 3080 3081 3082 3083 3084 3084 3086 3089 3091 3092 3093 3095 3096 3097 3099 3101 3102 3104 3105 3106 3108 3109 3110 3111 3113 3115 3115 3116 3117 3118 3119 3120 3122 3124 3126 3127 3129 3131 3133 3135 3137 3139 3141 3142 3143 3144 3146 3147 3148 3149 3149 3150 3151 3152
3030 3029 3027 3025 3026 3027 3028 3030 3032 3033 3035 3039 3040 3040 3042 3044 3044 3046 3049 3051 3052 3053 3055 3058 3062 3065 3067 3067 3066 3068 3070 3072 3075 3078 3078 3079 3081 3081 3082 3085 3087 3087 3088 3090 3092 3092 3094 3096 3098 3099 3101 3103 3104 3106 3107 3108 3110 3111 3112 3113 3114 3114 3115 3116 3117 3119 3121 3123 3125 3126 3128 3130 3132 3134 3135 3137 3138 3139 3141 3142 3143 3144 3145 3146 3147 3147 3148
3030 3029 3027 3025 3026 3028 3028 3029 3029 3030 3032 3036 3038 3040 3041 3041 3042 3043 3044 3045 3046 3048 3051 3055 3058 3061 3062 3062 3063 3065 3068 3071 3073 3074 3075 3076 3078 3079 3081 3081 3082 3084 3085 3087 3088 3089 3090 3093 3095 3096 3098 3100 3101 3103 3104 3106 3108 3109 3109 3110 3111 3112 3112 3113 3115 3116 3117 3119 3121 3123 3124 3127 3129 3130 3132 3133 3134 3135 3136 3137 3139 3140 3141 3142 3143 3143 3144
3029 3029 3027 3026 3028 3030 3029 3029 3030 3030 3031 3033 3036 3037 3037 3037 3039 3041 3041 3043 3045 3047 3050 3053 3056 3058 3060 3060 3061 3063 3066 3069 3070 3071 3072 3074 3075 3077 3078 3077 3079 3081 3082 3083 3084 3086 3088 3090 3092 3093 3095 3096 3098 3100 3101 3102 3104 3105 3106 3107 3108 3109 3110 3111 3112 3113 3114 3116 3118 3119 3121 3124 3126 3127 3128 3129 3130 3131 3132 3133 3134 3135 3136 3137 3138 3139 3140
3030 3029 3027 3027 3029 3030 3030 3029 3030 3032 3032 3032 3034 3035 3034 3035 3038 3040 3040 3043 3045 3046 3049 3052 3054 3056 3057 3058 3059 3062 3064 3066 3067 3068 3070 3071 3072 3074 3074 3074 3076 3078 3079 3080 3081 3083 3085 3087 3089 3090 3091 3093 3095 3096 3097 3099 3101 3102 3102 3103 3105 3106 3107 3108 3109 3110 3111 3112 3114 3115 3118 3120 3122 3123 3124 3125 3125 3127 3127 3128 3130 3131 3132 3133 3134 3135 3136
3028 3027 3027 3028 3029 3030 3030 3029 3030 3032 3033 3033 3034 3034 3034 3035 3038 3040 3041 3043 3044 3045 3048 3050 3052 3054 3055 3056 3058 3060 3062 3063 3064 3065 3067 3068 3068 3069 3070 3071 3073 3075 3076 3077 3079 3080 3082 3084 3085 3087 3088 3089 3090 3092 3094 3095 3097 3098 3099 3100 3101 3103 3104 3105 3106 3107 3108 3109 3110 3112 3114 3116 3117 3119 3120 3120 3121 3122 3123 3124 3125 3126 3128 3128 3129 3130 3131
3027 3026 3028 3029 3030 3030 3031 3031 3031 3032 3033 3033 3033 3033 3034 3036 3038 3040 3041 3042 3044 3045 3048 3049 3051 3052 3054 3055 3057 3058 3060 3061 3062 3063 3064 3065 3066 3066 3067 3069 3071 3073 3074 3074 3076 3078 3079 3080 3082 3084 3085 3085 3087 3089 3090 3091 3093 3095 3095 3096 3098 3100 3100 3102 3103 3104 3105 3106 3107 3108 3110 3111 3113 3114 3115 3116 3117 3118 3119 3120 3121 3122 3123 3124 3124 3125 3126
3027 3027 3027 3028 3029 3029 3030 3031 3032 3033 3033 3032 3031 3032 3034 3035 3037 3039 3041 3042 3043 3045 3046 3047 3049 3050 3052 3053 3055 3056 3057 3059 3060 3061 3062 3063 3063 3064 3065 3066 3068 3069 3070 3072 3073 3074 3076 3078 3079 3081 3081 3083 3084 3086 3087 3088 3089 3091 3092 3092 3094 3096 3097 3098 3100 3101 3102 3103 3103 3104 3106 3107 3109 3110 3111 3112 3113 3113 3114 3115 3117 3118 3119 3119 3120 3120 3121
3026 3025 3025 3025 3026 3027 3028 3030 3032 3032 3031 3029 3029 3031 3034 3035 3036 3038 3039 3040 3042 3043 3044 3045 3046 3048 3050 3051 3052 3053 3055 3056 3058 3059 3060 3060 3061 3062 3063 3064 3065 3066 3067 3069 3070 3071 3073 3075 3076 3077 3079 3080 3082 3083 3084 3085 3086 3087 3088 3089 3091 3092 3094 3095 3096 3097 3098 3099 3100 3101 3102 3103 3104 3105 3106 3107 3108 3109 3111 3112 3113 3114 3115 3115 3115 3116 3116
3025 3025 3024 3025 3026 3026 3027 3030 3032 3030 3028 3027 3028 3030 3033 3034 3035 3037 3038 3039 3041 3042 3043 3044 3045 3047 3048 3049 3050 3051 3052 3054 3055 3057 3057 3058 3058 3059 3060 3061 3062 3063 3064 3065 3067 3068 3070 3072 3073 3074 3076 3077 3079 3081 3082 3083 3083 3084 3085 3086 3087 3089 3090 3091 3092 3093 3094 3095 3096 3097 3097 3098 3099 3100 3102 3104 3105 3106 3107 3109 3109 3110 3111 3111 3111 3111 3112
3024 3025 3026 3027 3027 3026 3027 3029 3029 3025 3023 3025 3027 3029 3030 3032 3034 3035 3036 3038 3039 3041 3042 3043 3044 3045 3046 3048 3049 3049 3050 3051 3053 3054 3055 3055 3056 3057 3058 3059 3059 3061 3062 3063 3064 3066 3067 3069 3070 3071 3073 3074 3076 3077 3079 3080 3081 3081 3082 3083 3084 3085 3086 3087 3088 3090 3091 3091 3092 3093 3094 3094 3095 3097 3099 3100 3101 3102 3103 3104 3105 3106 3107 3107 3107 3108 3109
3022 3023 3024 3024 3024 3023 3022 3023 3022 3020 3020 3023 3026 3027 3028 3030 3032 3033 3034 3035 3037 3039 3040 3041 3042 3043 3045 3047 3048 3049 3050 3050 3051 3052 3052 3053 3054 3055 3055 3056 3057 3058 3059 3060 3061 3063 3064 3065 3066 3068 3070 3071 3073 3074 3075 3077 3078 3078 3079 3080 3081 3082 3083 3084 3085 3087 3088 3089 3090 3090 3090 3091 3092 3094 3095 3096 3097 3098 3099 3100 3101 3102 3102 3103 3104 3105 3105
3018 3018 3019 3019 3018 3017 3017 3017 3017 3017 3018 3020 3023 3025 3027 3028 3030 3031 3032 3033 3034 3036 3038 3040 3041 3042 3043 3045 3046 3047 3049 3050 3050 3050 3050 3051 3052 3052 3053 3054 3054 3055 3057 3058 3059 3060 3061 3062 3063 3065 3067 3068 3070 3071 3072 3074 3075 3076 3076 3077 3078 3080 3081 3082 3083 3084 3085 3086 3087 3087 3087 3088 3089 3091 3093 3093 3094 3094 3096 3097 3098 3098 3099 3099 3100 3101 3101
3014 3013 3014 3013 3013 3012 3013 3014 3016 3017 3018 3020 3023 3025 3026 3027 3028 3029 3030 3031 3032 3034 3036 3038 3039 3040 3041 3042 3043 3045 3047 3048 3049 3049 3049 3049 3050 3050 3051 3051 3052 3053 3054 3055 3056 3057 3058 3059 3060 3062 3064 3065 3067 3068 3069 3070 3071 3073 3074 3075 3076 3077 3078 3079 3080 3081 3082 3083 3084 3085 3086 3086 3087 3088 3089 3090 3090 3091 3092 3094 3094 3095 3095 3096 3096 3097 3097
3007 3007 3008 3008 3008 3008 3010 3012 3013 3015 3017 3018 3019 3021 3023 3024 3025 3026 3027 3028 3030 3031 3033 3036 3038 3039 3039 3040 3040 3041 3043 3045 3047 3048 3048 3047 3047 3047 3048 3049 3050 3050 3051 3052 3053 3054 3055 3056 3057 3059 3060 3062 3064 3065 3066 3067 3069 3070 3071 3073 3074 3075 3076 3076 3077 3078 3079 3080 3081 3083 3083 3084 3084 3085 3086 3087 3087 3088 3089 3090 3091 3091 3092 3092 3093 3093 3093
3003 3002 3003 3002 3001 3003 3005 3007 3009 3011 3012 3013 3014 3016 3017 3019 3020 3022 3024 3026 3028 3030 3031 3033 3035 3037 3038 3038 3038 3039 3040 3041 3043 3045 3046 3046 3045 3045 3045 3045 3046 3047 3048 3049 3050 3051 3052 3053 3054 3056 3057 3059 3061 3062 3063 3065 3066 3067 3068 3070 3071 3072 3073 3073 3075 3076 3077 3078 3079 3080 3081 3081 3082 3082 3083 3084 3085 3085 3086 3087 3088 3088 3088 3088 3089 3089 3089
2997 2998 2998 2996 2995 2997 3000 3002 3003 3004 3006 3007 3008 3010 3012 3014 3015 3018 3021 3023 3025 3027 3029 3030 3032 3034 3035 3036 3036 3037 3037 3038 3039 3041 3042 3043 3043 3043 3043 3043 3043 3043 3044 3046 3047 3048 3049 3050 3051 3053 3054 3056 3057 3059 3060 3062 3063 3064 3065 3066 3068 3069 3069 3071 3072 3074 3075 3076 3077 3078 3078 3079 3080 3080 3080 3081 3082 3082 3083 3083 3083 3083 3083 3084 3085 3085 3085
2991 2992 2993 2992 2992 2993 2995 2996 2997 2999 3000 3001 3003 3005 3007 3009 3010 3013 3017 3020 3022 3024 3026 3027 3029 3031 3032 3033 3034 3035 3035 3036 3036 3038 3038 3039 3040 3041 3041 3041 3041 3041 3041 3042 3044 3045 3046 3047 3049 3050 3051 3053 3054 3056 3057 3058 3060 3061 3062 3063 3064 3066 3067 3069 3070 3071 3072 3073 3074 3074 3075 3076 3076 3076 3077 3077 3078 3078 3078 3078 3078 3079 3079 3079 3080 3080 3080
2986 2986 2987 2987 2988 2990 2990 2991 2992 2994 2995 2997 2998 3000 3002 3003 3005 3008 3013 3016 3019 3021 3023 3024 3026 3028 3029 3030 3031 3032 3033 3033 3034 3035 3036 3037 3038 3038 3038 3038 3039 3039 3038 3039 3040 3042 3043 3044 3046 3047 3049 3050 3051 3053 3054 3055 3057 3058 3059 3060 3061 3063 3064 3065 3066 3067 3068 3069 3070 3070 3071 3072 3072 3072 3073 3073 3073 3074 3074 3074 3074 3074 3074 3074 3075 3075 3075
2979 2980 2980 2982 2983 2985 2986 2987 2988 2989 2991 2992 2994 2995 2997 2998 3001 3005 3009 3013 3015 3018 3019 3021 3023 3025 3026 3028 3029 3030 3031 3032 3033 3034 3034 3035 3035 3036 3036 3035 3035 3035 3036 3037 3038 3039 3040 3041 3043 3045 3046 3047 3049 3050 3051 3052 3053 3054 3055 3057 3058 3059 3060 3061 3062 3063 3064 3065 3066 3066 3067 3067 3068 3068 3069 3069 3069 3069 3070 3070 3070 3070 3070 3070 3070 3070 3070
2974 2974 2975 2976 2978 2979 2980 2982 2983 2984 2986 2988 2989 2991 2992 2994 2997 3001 3006 3010 3012 3014 3017 3019 3020 3022 3024 3025 3026 3027 3028 3029 3030 3031 3032 3032 3032 3033 3033 3033 3032 3032 3033 3035 3035 3036 3037 3039 3040 3042 3043 3044 3045 3047 3047 3048 3050 3051 3052 3054 3055 3056 3057 3058 3059 3060 3060 3061 3062 3062 3063 3063 3064 3065 3065 3065 3065 3065 3065 3065 3065 3065 3065 3065 3066 3066 3066
2969 2969 2971 2972 2973 2975 2976 2977 2978 2979 2981 2983 2985 2987 2989 2991 2993 2997 3002 3006 3009 3012 3014 3016 3018 3020 3021 3023 3024 3025 3026 3027 3027 3028 3029 3030 3030 3030 3030 3030 3029 3030 3031 3032 3033 3033 3035 3037 3038 3039 3040 3041 3042 3044 3045 3045 3047 3048 3049 3051 3052 3052 3053 3054 3055 3056 3056 3057 3058 3058 3059 3060 3061 3061 3062 3062 3062 3061 3061 3061 3061 3061 3061 3062 3063 3063 3062
2966 2967 2968 2970 2971 2972 2973 2974 2975 2975 2977 2979 2981 2983 2985 2987 2991 2995 3000 3003 3005 3008 3011 3014 3016 3017 3018 3019 3021 3022 3022 3023 3025 3026 3026 3026 3026 3026 3026 3025 3026 3028 3029 3030 3030 3031 3033 3035 3036 3037 3038 3039 3040 3041 3042 3043 3044 3045 3046 3047 3048 3048 3049 3050 3050 3051 3052 3053 3054 3055 3055 3056 3056 3057 3057 3058 3058 3058 3058 3058 3058 3058 3058 3058 3059 3059 3059
2964 2965 2966 2968 2969 2969 2970 2971 2972 2973 2974 2976 2978 2980 2983 2985 2989 2993 2997 3000 3003 3006 3009 3012 3014 3015 3015 3017 3017 3018 3018 3020 3021 3022 3022 3022 3021 3022 3022 3022 3024 3027 3028 3029 3029 3030 3031 3032 3034 3035 3037 3038 3038 3039 3039 3040 3041 3042 3043 3044 3044 3045 3046 3046 3046 3047 3048 3049 3049 3051 3052 3052 3053 3053 3053 3054 3054 3055 3054 3054 3055 3055 3055 3054 3054 3054 3054
2965 2965 2966 2966 2966 2967 2967 2969 2970 2971 2972 2974 2977 2979 2981 2984 2987 2991 2994 2998 3001 3004 3007 3009 3010 3011 3013 3014 3014 3015 3015 3017 3018 3019 3019 3019 3019 3019 3020 3021 3023 3026 3027 3028 3029 3029 3030 3031 3032 3033 3034 3035 3036 3037 3037 3038 3039 3039 3040 3041 3041 3042 3043 3044 3044 3045 3046 3046 3047 3048 3049 3050 3050 3051 3051 3051 3052 3051 3051 3051 3051 3051 3051 3050 3049 3048 3049
2967 2967 2966 2966 2966 2966 2967 2967 2968 2969 2971 2973 2975 2978 2980 2983 2985 2988 2992 2996 2999 3001 3003 3004 3006 3008 3009 3010 3011 3012 3014 3015 3016 3017 3018 3018 3018 3019 3020 3021 3023 3025 3026 3027 3028 3029 3029 3030 3031 3032 3033 3033 3034 3035 3035 3036 3037 3037 3038 3038 3038 3038 3039 3041 3042 3043 3043 3044 3045 3046 3047 3047 3047 3048 3048 3049 3049 3048 3048 3048 3047 3046 3046 3046 3046 3045 3045
2968 2967 2967 2967 2966 2966 2966 2967 2969 2970 2971 2972 2974 2976 2978 2981 2983 2986 2990 2994 2997 2999 3000 3001 3003 3005 3007 3008 3010 3011 3012 3013 3014 3015 3016 3017 3018 3019 3021 3022 3023 3024 3025 3026 3027 3028 3029 3030 3030 3031 3031 3032 3032 3033 3034 3034 3035 3036 3036 3037 3036 3037 3037 3039 3039 3040 3041 3041 3042 3043 3044 3044 3045 3045 3046 3046 3045 3045 3045 3044 3044 3043 3043 3043 3043 3043 3042
2969 2968 2968 2968 2968 2967 2967 2968 2970 2972 2973 2973 2974 2976 2977 2980 2983 2986 2990 2993 2996 2997 2997 2999 3001 3003 3005 3006 3008 3009 3010 3012 3013 3014 3016 3017 3018 3019 3020 3021 3022 3023 3024 3025 3026 3027 3028 3028 3029 3029 3030 3030 3031 3031 3032 3033 3034 3035 3035 3035 3035 3035 3036 3037 3037 3038 3038 3039 3039 3040 3041 3042 3042 3043 3042 3042 3042 3042 3042 3041 3041 3041 3040 3040 3040 3040 3040
2974 2971 2970 2969 2970 2970 2970 2971 2973 2974 2974 2975 2976 2977 2978 2979 2982 2985 2987 2990 2993 2994 2994 2996 2999 3001 3003 3004 3006 3008 3009 3011 3012 3013 3014 3015 3016 3017 3018 3019 3021 3022 3023 3023 3024 3025 3026 3026 3027 3028 3028 3029 3029 3030 3030 3031 3032 3032 3033 3033 3034 3034 3034 3035 3035 3036 3036 3037 3037 3037 3038 3038 3039 3039 3039 3039 3039 3039 3038 3038 3038 3038 3038 3038 3037 3037 3036
2983 2979 2976 2973 2972 2972 2973 2974 2974 2975 2975 2975 2976 2977 2979 2980 2981 2983 2984 2984 2986 2989 2991 2993 2996 2999 3001 3003 3005 3007 3008 3009 3010 3012 3013 3014 3015 3016 3017 3018 3019 3020 3021 3022 3023 3023 3024 3025 3025 3026 3026 3027 3028 3028 3029 3029 3030 3030 3031 3032 3032 3032 3032 3033 3033 3034 3034 3034 3034 3034 3034 3035 3036 3036 3036 3036 3036 3035 3034 3034 3034 3034 3034 3034 3033 3033 3032
2990 2988 2984 2981 2979 2978 2977 2976 2975 2976 2976 2975 2975 2977 2979 2980 2981 2983 2983 2982 2982 2985 2989 2991 2993 2997 2999 3001 3003 3005 3006 3007 3008 3010 3011 3013 3014 3015 3016 3017 3018 3019 3019 3020 3021 3021 3022 3023 3023 3024 3024 3025 3026 3026 3027 3027 3028 3028 3029 3029 3030 3030 3030 3030 3030 3031 3031 3031 3032 3032 3032 3032 3033 3033 3033 3034 3033 3032 3031 3031 3030 3031 3031 3030 3030 3029 3029
2996 2994 2991 2988 2987 2985 2983 2981 2979 2978 2977 2977 2976 2977 2979 2980 2981 2983 2984 2985 2986 2988 2989 2990 2991 2994 2997 2999 3001 3002 3003 3004 3006 3008 3010 3011 3012 3013 3015 3016 3017 3017 3018 3019 3019 3020 3020 3021 3021 3022 3023 3023 3024 3024 3025 3025 3025 3026 3026 3027 3027 3027 3028 3028 3028 3029 3029 3029 3029 3029 3030 3030 3030 3030 3031 3031 3030 3029 3028 3027 3027 3027 3027 3026 3026 3026 3025
3001 2999 2996 2994 2993 2992 2990 2989 2987 2984 2982 2981 2981 2980 2980 2980 2981 2982 2983 2985 2987 2989 2990 2990 2990 2993 2995 2997 2998 2999 3000 3002 3004 3006 3008 3009 3010 3011 3013 3014 3015 3015 3016 3016 3017 3018 3018 3019 3020 3020 3021 3022 3022 3022 3023 3023 3023 3023 3024 3024 3025 3025 3025 3026 3026 3027 3027 3027 3027 3027 3027 3027 3028 3028 3028 3028 3027 3026 3025 3025 3024 3024 3024 3023 3023 3022 3022
3005 3003 3001 2999 2998 2996 2995 2994 2992 2991 2990 2989 2988 2986 2985 2985 2985 2986 2986 2986 2987 2988 2989 2989 2990 2992 2994 2996 2996 2998 2999 3001 3002 3004 3005 3006 3008 3009 3010 3011 3012 3013 3014 3014 3015 3015 3016 3017 3018 3018 3019 3020 3020 3021 3021 3021 3021 3022 3022 3022 3023 3023 3024 3024 3024 3025 3025 3025 3025 3025 3025 3026 3026 3027 3027 3026 3025 3024 3023 3022 3022 3021 3020 3020 3019 3019 3019
3009 3008 3006 3004 3002 3000 2999 2998 2997 2996 2995 2994 2993 2992 2991 2991 2991 2991 2991 2991 2990 2990 2991 2991 2992 2993 2994 2995 2996 2998 2999 3001 3002 3003 3004 3005 3007 3008 3009 3009 3010 3011 3012 3013 3013 3014 3015 3015 3016 3017 3017 3018 3019 3019 3020 3020 3020 3020 3021 3021 3021 3022 3022 3023 3023 3023 3024 3024 3024 3024 3024 3024 3025 3026 3025 3024 3022 3021 3021 3020 3019 3018 3017 3017 3016 3016 3016
3011 3011 3010 3008 3006 3004 3003 3002 3002 3001 3000 2998 2997 2996 2996 2995 2995 2995 2995 2995 2995 2994 2994 2994 2995 2995 2996 2997 2998 2999 3000 3002 3003 3004 3005 3006 3007 3008 3008 3009 3009 3010 3011 3011 3012 3012 3013 3014 3015 3015 3016 3017 3018 3018 3018 3019 3019 3019 3020 3020 3020 3020 3021 3021 3022 3022 3022 3023 3023 3023 3022 3023 3023 3024 3023 3021 3019 3018 3018 3017 3016 3015 3014 3014 3014 3014 3014
3013 3012 3011 3010 3009 3008 3006 3005 3005 3004 3003 3002 3001 3000 3000 2999 2999 2998 2998 2998 2998 2998 2998 2998 2998 2998 2998 2999 2999 3000 3001 3002 3003 3004 3005 3006 3007 3007 3008 3008 3009 3009 3010 3010 3011 3012 3013 3014 3015 3015 3016 3017 3017 3017 3017 3018 3018 3018 3018 3018 3019 3019 3019 3020 3020 3020 3021 3021 3021 3021 3021 3021 3021 3021 3019 3018 3016 3015 3015 3014 3013 3012 3011 3011 3011 3011 3011
3014 3013 3012 3012 3011 3010 3009 3008 3007 3006 3005 3005 3004 3004 3003 3003 3002 3002 3001 3001 3001 3000 3000 3000 3000 3000 3000 3001 3001 3001 3002 3003 3003 3004 3005 3006 3007 3007 3008 3008 3009 3009 3010 3011 3011 3012 3013 3014 3014 3015 3016 3016 3016 3017 3017 3017 3017 3017 3017 3017 3018 3018 3018 3018 3018 3019 3019 3019 3019 3019 3019 3019 3018 3017 3016 3014 3013 3012 3012 3011 3010 3009 3009 3009 3009 3009 3009
3016 3015 3014 3013 3012 3011 3010 3010 3009 3008 3007 3007 3007 3006 3006 3005 3005 3004 3004 3004 3003 3003 3003 3003 3002 3002 3002 3002 3003 3003 3004 3004 3005 3005 3006 3007 3007 3007 3008 3008 3009 3010 3010 3011 3012 3013 3013 3014 3014 3014 3014 3015 3015 3015 3016 3016 3016 3016 3016 3016 3016 3016 3016 3017 3017 3017 3017 3017 3016 3016 3016 3016 3015 3014 3013 3012 3011 3010 3009 3008 3007 3007 3006 3007 3007 3007 3006
3016 3016 3015 3014 3013 3012 3011 3011 3010 3010 3009 3009 3009 3008 3008 3007 3007 3006 3005 3005 3005 3005 3005 3004 3004 3004 3004 3004 3005 3005 3005 3006 3006 3006 3007 3007 3008 3008 3008 3009 3009 3010 3010 3011 3011 3012 3012 3012 3013 3013 3013 3013 3013 3014 3014 3014 3014 3014 3014 3014 3014 3014 3014 3014 3014 3014 3014 3014 3013 3013 3013 3013 3012 3011 3010 3008 3008 3007 3005 3004 3003 3003 3004 3004 3004 3004 3004
3016 3015 3015 3014 3013 3012 3012 3011 3011 3010 3010 3010 3010 3010 3009 3009 3008 3008 3007 3007 3006 3006 3006 3006 3006 3006 3006 3006 3006 3006 3006 3006 3007 3007 3007 3008 3008 3008 3008 3008 3009 3009 3009 3010 3010 3010 3011 3011 3011 3011 3011 3011 3011 3011 3012 3012 3012 3012 3011 3011 3011 3011 3011 3011 3011 3011 3010 3010 3010 3009 3009 3009 3008 3007 3006 3005 3004 3003 3001 3000 2999 3000 3001 3001 3001 3001 3000